Weather History for Farmingdale, NY

Change the Weather History Date:

Monday, March 10, 2014

  Actual Average Record
Temperature  
Mean Temperature 42 °F -  
Max Temperature 48 °F 43 °F 68 °F (2006)
Min Temperature 35 °F 29 °F 14 °F (2005)
Degree Days  
Heating Degree Days 24    
Moisture  
Dew Point 26 °F    
Average Humidity 59    
Maximum Humidity 83    
Minimum Humidity 42    
Precipitation  
Precipitation 0.00 in - - ()
Sea Level Pressure  
Sea Level Pressure 29.79 in    
Wind  
Wind Speed 7 mph (SW)    
Max Wind Speed 14 mph    
Max Gust Speed -    
Visibility 9 miles    
Events Snow    
Averages and records for this station are not official NWS values.
T = Trace of Precipitation, MM = Missing Value Source: NWS Daily Summary

Daily Weather History Graph

Daily Weather History Graph

Search for Another Location

Airport:

Trip Planner

Search our weather history database for the weather conditions in past years. The results will help you decide how hot, cold, wet, or windy it might be!

Date:

Astronomy

Mar. 10, 2014 Rise Set
Actual Time 7:13 AM EDT 6:54 PM EDT
Civil Twilight 6:46 AM EDT 7:22 PM EDT
Nautical Twilight 6:14 AM EDT 7:54 PM EDT
Astronomical Twilight 5:42 AM EDT 8:26 PM EDT
Moon 1:34 PM EDT (3/10) 3:24 AM EDT (3/10)
Length of Visible Light 12h 36m
Length of Day
11h 41m
Waxing Gibbous, 70% of the Moon is Illuminated
Mar 10
Waxing Gibbous
Mar 16
Full
Mar 23
Last Quarter
Mar 30
New
Apr 7
First Quarter

Hourly Weather History & Observations

Time (EDT) Temp. Windchill Dew Point Humidity Pressure Visibility Wind Dir Wind Speed Gust Speed Precip Events Conditions
12:53 AM 36.0 °F 33.3 °F 15.1 °F 43% 29.93 in 10.0 mi SSW 3.5 mph - N/A   Scattered Clouds
1:53 AM 36.0 °F 31.1 °F 19.9 °F 52% 29.91 in 10.0 mi SW 5.8 mph - N/A   Partly Cloudy
2:53 AM 37.0 °F 31.6 °F 19.0 °F 48% 29.89 in 10.0 mi WSW 6.9 mph - N/A   Overcast
3:53 AM 37.0 °F 31.6 °F 19.0 °F 48% 29.86 in 10.0 mi WSW 6.9 mph - N/A   Overcast
4:53 AM 37.0 °F 31.0 °F 19.0 °F 48% 29.85 in 10.0 mi WSW 8.1 mph - N/A   Overcast
5:53 AM 37.0 °F 31.6 °F 19.0 °F 48% 29.86 in 10.0 mi WSW 6.9 mph - N/A   Overcast
6:53 AM 35.1 °F 30.1 °F 25.0 °F 67% 29.87 in 6.0 mi WNW 5.8 mph - 0.00 in Snow Light Snow
7:53 AM 37.0 °F 31.0 °F 24.1 °F 59% 29.86 in 10.0 mi SW 8.1 mph - 0.00 in   Overcast
8:53 AM 37.9 °F 31.5 °F 25.0 °F 60% 29.86 in 10.0 mi SW 9.2 mph - N/A   Overcast
9:53 AM 37.9 °F 32.1 °F 25.0 °F 60% 29.86 in 10.0 mi WSW 8.1 mph - 0.00 in   Mostly Cloudy
10:53 AM 39.0 °F 32.3 °F 28.9 °F 67% 29.84 in 10.0 mi WSW 10.4 mph - N/A   Partly Cloudy
11:30 AM 39.2 °F 34.2 °F 28.4 °F 65% 29.83 in 1.8 mi WSW 6.9 mph - N/A   Haze
11:37 AM 41.0 °F 34.3 °F 26.6 °F 57% 29.83 in 3.0 mi West 11.5 mph - N/A   Haze
11:53 AM 41.0 °F 37.1 °F 26.1 °F 55% 29.83 in 10.0 mi SW 5.8 mph - N/A   Mostly Cloudy
12:53 PM 43.0 °F 38.2 °F 24.1 °F 47% 29.81 in 10.0 mi SSW 8.1 mph - N/A   Overcast
1:53 PM 42.1 °F 36.6 °F 27.0 °F 55% 29.78 in 10.0 mi South 9.2 mph - N/A   Overcast
2:53 PM 46.0 °F 42.5 °F 25.0 °F 44% 29.74 in 10.0 mi SW 6.9 mph - N/A   Scattered Clouds
3:53 PM 48.0 °F - 26.1 °F 42% 29.73 in 10.0 mi West 6.9 mph - N/A   Mostly Cloudy
4:53 PM 48.0 °F - 28.9 °F 48% 29.71 in 10.0 mi SSW 13.8 mph - N/A   Partly Cloudy
5:53 PM 44.1 °F 40.1 °F 30.0 °F 58% 29.69 in 10.0 mi SSW 6.9 mph - N/A   Partly Cloudy
6:53 PM 41.0 °F 36.4 °F 28.9 °F 62% 29.70 in 10.0 mi South 6.9 mph - N/A   Clear
7:53 PM 37.9 °F 32.7 °F 30.0 °F 73% 29.72 in 10.0 mi South 6.9 mph - N/A   Clear
8:53 PM 37.9 °F - 30.9 °F 76% 29.70 in 10.0 mi Calm Calm - N/A   Clear
9:53 PM 37.9 °F 34.4 °F 33.1 °F 83% 29.70 in 9.0 mi SSE 4.6 mph - N/A   Overcast
10:53 PM 39.9 °F 36.7 °F 35.1 °F 83% 29.67 in 9.0 mi South 4.6 mph - N/A   Overcast
11:53 PM 41.0 °F 38.0 °F 34.0 °F 76% 29.63 in 10.0 mi SSW 4.6 mph - N/A   Overcast